When you browse on this site, cookies collect data to enhance your experience and personalize the content and advertising you see.
Visit our Privacy Policy to learn more. By continuing to use the site, you agree to this use of cookies and data.
  • In United Kingdom
  • List of Countries
  • For 7 days
  • Water Temperature
  • Satellite Maps
  • Weather Map
  • Weather Widgets
  • user-avatar
    Login

    Hourly Weather Sopron

    Today, 26 April, Friday

    Time Temperature Precipitation Wind Pressure Humidity
    00:00 +18°C° 0 mm 7 mps 743 mmHg 49%
    01:00 +18°C° 0 mm 7 mps 743 mmHg 47%
    02:00 +18°C° 0 mm 7 mps 743 mmHg 48%
    03:00 +18°C° 0 mm 7 mps 742 mmHg 48%
    04:00 +18°C° 0 mm 7 mps 742 mmHg 49%
    05:00 +18°C° 0 mm 7 mps 742 mmHg 51%
    06:00 +18°C° 0 mm 7 mps 742 mmHg 53%
    07:00 +18°C° 0 mm 7 mps 742 mmHg 55%
    08:00 +21°C° 0 mm 7 mps 742 mmHg 51%
    09:00 +22°C° 0 mm 8 mps 742 mmHg 47%
    10:00 +24°C° 0 mm 8 mps 742 mmHg 44%
    11:00 +26°C° 0 mm 8 mps 741 mmHg 43%
    12:00 +26°C° 0 mm 8 mps 741 mmHg 42%
    13:00 +27°C° 0 mm 8 mps 740 mmHg 42%
    14:00 +27°C° 0 mm 7 mps 740 mmHg 42%
    15:00 +27°C° 0 mm 7 mps 740 mmHg 43%
    16:00 +27°C° 0 mm 7 mps 739 mmHg 43%
    17:00 +24°C° 0 mm 6 mps 740 mmHg 46%
    18:00 +22°C° 0 mm 5 mps 740 mmHg 49%
    19:00 +21°C° 0 mm 5 mps 740 mmHg 51%
    20:00 +19°C° 0 mm 4 mps 741 mmHg 56%
    21:00 +17°C° 0 mm 4 mps 742 mmHg 61%
    22:00 +14°C° 0 mm 3 mps 742 mmHg 66%
    23:00 +13°C° 0 mm 4 mps 743 mmHg 63%

    Tomorrow, 27 April, Saturday

    Time Temperature Precipitation Wind Pressure Humidity
    00:00 +13°C° 0 mm 4 mps 743 mmHg 61%
    01:00 +12°C° 0 mm 5 mps 744 mmHg 58%
    02:00 +11°C° 0 mm 6 mps 744 mmHg 58%
    03:00 +11°C° 0 mm 6 mps 744 mmHg 58%
    04:00 +11°C° 0 mm 7 mps 744 mmHg 59%
    05:00 +11°C° 0 mm 6 mps 744 mmHg 60%
    06:00 +11°C° 0 mm 6 mps 744 mmHg 61%
    07:00 +10°C° 0 mm 6 mps 745 mmHg 62%
    08:00 +11°C° 0 mm 6 mps 745 mmHg 59%
    09:00 +13°C° 0 mm 6 mps 745 mmHg 56%
    10:00 +14°C° 0 mm 7 mps 745 mmHg 54%
    11:00 +15°C° 0 mm 7 mps 745 mmHg 51%
    12:00 +16°C° 0 mm 7 mps 745 mmHg 49%
    13:00 +17°C° 0 mm 7 mps 744 mmHg 46%
    14:00 +17°C° 0 mm 7 mps 744 mmHg 47%
    15:00 +17°C° 0 mm 6 mps 744 mmHg 48%
    16:00 +17°C° 0 mm 6 mps 743 mmHg 48%
    17:00 +16°C° 0 mm 5 mps 743 mmHg 51%
    18:00 +14°C° 0 mm 5 mps 744 mmHg 55%
    19:00 +13°C° 0 mm 4 mps 744 mmHg 58%
    20:00 +13°C° 0 mm 4 mps 744 mmHg 58%
    21:00 +12°C° 0 mm 4 mps 745 mmHg 58%
    22:00 +12°C° 0 mm 4 mps 745 mmHg 58%
    23:00 +10°C° 0 mm 5 mps 745 mmHg 61%

    Day after tomorrow, 28 April, Sunday

    Time Temperature Precipitation Wind Pressure Humidity
    00:00 +10°C° 0 mm 6 mps 745 mmHg 64%
    01:00 +10°C° 0 mm 6 mps 746 mmHg 67%
    02:00 +9°C° 0 mm 7 mps 746 mmHg 66%
    03:00 +9°C° 0 mm 7 mps 746 mmHg 66%
    04:00 +9°C° 0 mm 7 mps 746 mmHg 66%
    05:00 +9°C° 0 mm 7 mps 746 mmHg 63%
    06:00 +9°C° 0 mm 8 mps 747 mmHg 59%
    07:00 +8°C° 0 mm 9 mps 747 mmHg 56%
    08:00 +10°C° 0 mm 8 mps 747 mmHg 52%
    09:00 +11°C° 0 mm 8 mps 747 mmHg 48%
    10:00 +13°C° 0 mm 8 mps 747 mmHg 44%
    11:00 +13°C° 0 mm 8 mps 747 mmHg 42%
    12:00 +15°C° 0 mm 7 mps 746 mmHg 40%
    13:00 +16°C° 0 mm 7 mps 746 mmHg 38%
    14:00 +16°C° 0 mm 7 mps 746 mmHg 38%
    15:00 +16°C° 0 mm 6 mps 746 mmHg 38%
    16:00 +16°C° 0 mm 6 mps 746 mmHg 38%
    17:00 +14°C° 0 mm 5 mps 746 mmHg 43%
    18:00 +13°C° 0 mm 4 mps 746 mmHg 47%
    19:00 +11°C° 0 mm 3 mps 746 mmHg 52%
    20:00 +10°C° 0 mm 3 mps 746 mmHg 52%
    21:00 +10°C° 0 mm 3 mps 746 mmHg 53%
    22:00 +8°C° 0 mm 4 mps 747 mmHg 53%
    23:00 +8°C° 0 mm 4 mps 747 mmHg 54%

    29 April, Monday

    Time Temperature Precipitation Wind Pressure Humidity
    00:00 +8°C° 0 mm 4 mps 747 mmHg 55%
    01:00 +8°C° 0 mm 5 mps 746 mmHg 56%
    02:00 +8°C° 0 mm 5 mps 746 mmHg 57%
    03:00 +8°C° 0 mm 5 mps 746 mmHg 57%
    04:00 +8°C° 0 mm 5 mps 746 mmHg 57%
    05:00 +8°C° 0 mm 6 mps 746 mmHg 57%
    06:00 +9°C° 0 mm 6 mps 746 mmHg 56%
    07:00 +9°C° 0 mm 7 mps 746 mmHg 56%
    08:00 +10°C° 0 mm 7 mps 746 mmHg 54%
    09:00 +11°C° 0 mm 7 mps 745 mmHg 51%
    10:00 +12°C° 0 mm 7 mps 745 mmHg 49%
    11:00 +14°C° 0 mm 7 mps 745 mmHg 48%
    12:00 +15°C° 0 mm 7 mps 744 mmHg 48%
    13:00 +15°C° 0 mm 7 mps 744 mmHg 47%
    14:00 +15°C° 0.1 mm 6 mps 744 mmHg 52%
    15:00 +14°C° 0.1 mm 6 mps 743 mmHg 57%
    16:00 +13°C° 0.1 mm 5 mps 743 mmHg 62%
    17:00 +12°C° 0.2 mm 5 mps 743 mmHg 68%
    18:00 +12°C° 0.2 mm 4 mps 743 mmHg 74%
    19:00 +11°C° 0.2 mm 4 mps 743 mmHg 80%
    20:00 +10°C° 0 mm 4 mps 743 mmHg 80%
    21:00 +10°C° 0 mm 4 mps 743 mmHg 80%
    22:00 +8°C° 0 mm 5 mps 743 mmHg 80%
    23:00 +8°C° 0 mm 5 mps 743 mmHg 80%

    30 April, Tuesday

    Time Temperature Precipitation Wind Pressure Humidity
    00:00 +8°C° 0 mm 5 mps 743 mmHg 79%
    01:00 +8°C° 0 mm 5 mps 743 mmHg 78%
    02:00 +8°C° 0 mm 5 mps 742 mmHg 77%
    03:00 +8°C° 0 mm 5 mps 742 mmHg 76%
    04:00 +8°C° 0 mm 5 mps 742 mmHg 75%
    05:00 +9°C° 0 mm 6 mps 742 mmHg 73%
    06:00 +9°C° 0 mm 7 mps 742 mmHg 71%
    07:00 +10°C° 0 mm 8 mps 742 mmHg 69%
    08:00 +10°C° 0.3 mm 8 mps 742 mmHg 71%
    09:00 +9°C° 0.3 mm 8 mps 741 mmHg 74%
    10:00 +9°C° 0.3 mm 8 mps 741 mmHg 76%
    11:00 +10°C° 0.2 mm 8 mps 741 mmHg 76%
    12:00 +10°C° 0.2 mm 8 mps 741 mmHg 76%
    13:00 +11°C° 0.2 mm 8 mps 741 mmHg 76%
    14:00 +11°C° 0.1 mm 8 mps 741 mmHg 74%
    15:00 +12°C° 0.1 mm 8 mps 741 mmHg 73%
    16:00 +12°C° 0.1 mm 7 mps 741 mmHg 71%
    17:00 +11°C° 0.1 mm 7 mps 742 mmHg 73%
    18:00 +11°C° 0.1 mm 6 mps 742 mmHg 75%
    19:00 +10°C° 0.1 mm 5 mps 742 mmHg 77%
    20:00 +10°C° 0.1 mm 5 mps 742 mmHg 79%
    21:00 +9°C° 0.1 mm 5 mps 743 mmHg 81%
    22:00 +10°C° 0.1 mm 4 mps 743 mmHg 83%
    23:00 +8°C° 0 mm 4 mps 743 mmHg 83%

    1 May, Wednesday

    Time Temperature Precipitation Wind Pressure Humidity
    00:00 +8°C° 0 mm 4 mps 743 mmHg 83%
    01:00 +7°C° 0 mm 4 mps 743 mmHg 84%
    02:00 +7°C° 0 mm 4 mps 743 mmHg 84%
    03:00 +7°C° 0 mm 4 mps 743 mmHg 84%
    04:00 +6°C° 0 mm 4 mps 743 mmHg 84%
    05:00 +7°C° 0 mm 5 mps 743 mmHg 79%
    06:00 +9°C° 0 mm 5 mps 743 mmHg 75%
    07:00 +10°C° 0 mm 6 mps 743 mmHg 70%
    08:00 +11°C° 0 mm 6 mps 743 mmHg 64%
    09:00 +14°C° 0 mm 6 mps 742 mmHg 58%
    10:00 +15°C° 0 mm 6 mps 742 mmHg 52%
    11:00 +16°C° 0 mm 6 mps 742 mmHg 49%
    12:00 +17°C° 0 mm 5 mps 742 mmHg 47%
    13:00 +17°C° 0 mm 5 mps 741 mmHg 44%
    14:00 +17°C° 0 mm 5 mps 741 mmHg 45%
    15:00 +17°C° 0 mm 5 mps 741 mmHg 46%
    16:00 +17°C° 0 mm 5 mps 741 mmHg 47%
    17:00 +15°C° 0 mm 4 mps 741 mmHg 53%
    18:00 +14°C° 0 mm 3 mps 741 mmHg 59%
    19:00 +13°C° 0 mm 2 mps 741 mmHg 65%
    20:00 +12°C° 0 mm 2 mps 741 mmHg 67%
    21:00 +12°C° 0 mm 2 mps 741 mmHg 69%
    22:00 +11°C° 0 mm 1 mps 741 mmHg 71%
    23:00 +10°C° 0.1 mm 2 mps 741 mmHg 73%
    Show more